| time (UTC) | temp C | wind direction | speed KPH | gust KPH | rain 1hr cm | rain 24hr cm | rain mn cm | humidity % | barometer mb |
| 20260906150109 | 17 | 104 | 6.4 | 22.5 | 0.00 | 0.13 | 0.00 | 74 | 1022.1 |
| 20260906145605 | 17 | 151 | 6.4 | 22.5 | 0.00 | 0.13 | 0.00 | 73 | 1022.1 |
| 20260906145106 | 17 | 118 | 6.4 | 17.7 | 0.00 | 0.15 | 0.00 | 76 | 1022.1 |
| 20260906144544 | 16 | 238 | 8.0 | 24.1 | 0.00 | 0.18 | 0.00 | 77 | 1022.3 |
| 20260906144041 | 16 | 164 | 9.7 | 24.1 | 0.00 | 0.18 | 0.00 | 76 | 1022.3 |
| 20260906143542 | 16 | 168 | 8.0 | 19.3 | 0.00 | 0.20 | 0.00 | 75 | 1022.5 |
| 20260906143009 | 16 | 254 | 8.0 | 17.7 | 0.00 | 0.25 | 0.00 | 76 | 1022.5 |
| 20260906142510 | 17 | 181 | 8.0 | 16.1 | 0.00 | 0.28 | 0.00 | 75 | 1022.5 |
| 20260906142010 | 17 | 239 | 8.0 | 17.7 | 0.00 | 0.33 | 0.00 | 74 | 1022.5 |
| 20260906141707 | 17 | 223 | 8.0 | 17.7 | 0.00 | 0.33 | 0.00 | 74 | 1022.7 |
| 20260906140940 | 17 | 240 | 8.0 | 16.1 | 0.00 | 0.33 | 0.00 | 75 | 1022.8 |
| 20260906140412 | 17 | 215 | 8.0 | 16.1 | 0.00 | 0.33 | 0.00 | 75 | 1022.7 |
| 20260906135846 | 16 | 237 | 8.0 | 17.7 | 0.00 | 0.33 | 0.00 | 76 | 1022.8 |
| 20260906135343 | 16 | 221 | 8.0 | 14.5 | 0.00 | 0.33 | 0.00 | 75 | 1023.0 |
| 20260906134817 | 16 | 224 | 8.0 | 17.7 | 0.00 | 0.33 | 0.00 | 76 | 1022.9 |
| 20260906134513 | 16 | 125 | 6.4 | 16.1 | 0.00 | 0.33 | 0.00 | 77 | 1023.0 |
| 20260906133947 | 16 | 173 | 8.0 | 14.5 | 0.00 | 0.33 | 0.00 | 76 | 1023.1 |
| 20260906133434 | 16 | 214 | 6.4 | 17.7 | 0.00 | 0.33 | 0.00 | 76 | 1023.1 |
| 20260906132702 | 16 | 202 | 6.4 | 14.5 | 0.00 | 0.33 | 0.00 | 78 | 1023.0 |
| 20260906132148 | 16 | 253 | 6.4 | 17.7 | 0.00 | 0.33 | 0.00 | 79 | 1022.9 |
| 20260906131902 | 16 | 157 | 6.4 | 17.7 | 0.00 | 0.33 | 0.00 | 79 | 1022.8 |
| 20260906131144 | 16 | 221 | 6.4 | 12.9 | 0.00 | 0.33 | 0.00 | 79 | 1022.8 |
| 20260906130648 | 16 | 243 | 4.8 | 17.7 | 0.00 | 0.33 | 0.00 | 79 | 1022.7 |
| 20260906130349 | 16 | 259 | 4.8 | 16.1 | 0.00 | 0.33 | 0.00 | 80 | 1022.6 |
| 20260906125626 | 16 | 202 | 8.0 | 22.5 | 0.00 | 0.33 | 0.00 | 79 | 1022.7 |
| 20260906125344 | 16 | 254 | 8.0 | 22.5 | 0.00 | 0.33 | 0.00 | 79 | 1022.7 |
| 20260906124844 | 16 | 235 | 6.4 | 12.9 | 0.00 | 0.33 | 0.00 | 79 | 1022.7 |
| 20260906124119 | 16 | 165 | 6.4 | 12.9 | 0.00 | 0.33 | 0.00 | 79 | 1022.7 |
| 20260906123554 | 16 | 224 | 6.4 | 11.3 | 0.00 | 0.33 | 0.00 | 79 | 1022.8 |
| 20260906123047 | 16 | 227 | 6.4 | 22.5 | 0.00 | 0.33 | 0.00 | 80 | 1022.8 |
| 20260906122524 | 16 | 214 | 4.8 | 22.5 | 0.00 | 0.33 | 0.00 | 81 | 1022.7 |
| 20260906121953 | 16 | 214 | 4.8 | 14.5 | 0.00 | 0.33 | 0.00 | 81 | 1022.7 |
| 20260906121427 | 15 | 195 | 4.8 | 14.5 | 0.00 | 0.33 | 0.00 | 81 | 1022.6 |
| 20260906120922 | 15 | 242 | 6.4 | 19.3 | 0.00 | 0.33 | 0.00 | 82 | 1022.5 |
| 20260906120425 | 15 | 260 | 6.4 | 19.3 | 0.00 | 0.33 | 0.00 | 82 | 1022.5 |
| 20260906115852 | 15 | 171 | 4.8 | 12.9 | 0.00 | 0.33 | 0.00 | 82 | 1022.5 |
| 20260906115350 | 15 | 247 | 6.4 | 14.5 | 0.00 | 0.33 | 0.00 | 83 | 1022.5 |
| 20260906114846 | 15 | 177 | 6.4 | 14.5 | 0.00 | 0.33 | 0.00 | 83 | 1022.4 |
| 20260906114345 | 15 | 221 | 4.8 | 12.9 | 0.00 | 0.33 | 0.00 | 83 | 1022.3 |
| 20260906114051 | 15 | 147 | 4.8 | 14.5 | 0.00 | 0.33 | 0.00 | 84 | 1022.2 |
| 20260906113257 | 15 | 236 | 6.4 | 16.1 | 0.00 | 0.33 | 0.00 | 85 | 1022.2 |
| 20260906112727 | 15 | 146 | 6.4 | 19.3 | 0.00 | 0.33 | 0.00 | 85 | 1022.2 |
| 20260906112223 | 15 | 190 | 8.0 | 16.1 | 0.00 | 0.33 | 0.00 | 85 | 1022.0 |
| 20260906111722 | 15 | 181 | 8.0 | 17.7 | 0.00 | 0.33 | 0.00 | 85 | 1021.9 |
| 20260906111155 | 15 | 168 | 8.0 | 22.5 | 0.00 | 0.33 | 0.00 | 85 | 1021.9 |
| 20260906110652 | 15 | 289 | 8.0 | 22.5 | 0.00 | 0.33 | 0.00 | 86 | 1021.9 |
| 20260906110154 | 15 | 196 | 8.0 | 19.3 | 0.00 | 0.33 | 0.00 | 86 | 1021.9 |
| 20260906105654 | 15 | 150 | 8.0 | 19.3 | 0.00 | 0.33 | 0.00 | 87 | 1021.9 |
| 20260906105353 | 15 | 264 | 8.0 | 17.7 | 0.00 | 0.33 | 0.00 | 87 | 1021.8 |
| 20260906104849 | 14 | 215 | 6.4 | 17.7 | 0.00 | 0.33 | 0.00 | 87 | 1021.7 |
| 20260906104120 | 14 | 212 | 6.4 | 17.7 | 0.00 | 0.33 | 0.00 | 87 | 1021.6 |
| 20260906103616 | 14 | 222 | 6.4 | 19.3 | 0.00 | 0.33 | 0.00 | 87 | 1021.5 |
| 20260906103117 | 14 | 144 | 4.8 | 19.3 | 0.00 | 0.33 | 0.00 | 87 | 1021.6 |
| 20260906102834 | 14 | 185 | 3.2 | 11.3 | 0.00 | 0.33 | 0.00 | 88 | 1021.6 |
| 20260906102110 | 14 | 166 | 1.6 | 11.3 | 0.00 | 0.33 | 0.00 | 89 | 1021.5 |
| 20260906101542 | 14 | 245 | 3.2 | 11.3 | 0.00 | 0.33 | 0.00 | 89 | 1021.5 |
| 20260906101038 | 14 | 181 | 0.0 | 11.3 | 0.00 | 0.33 | 0.00 | 90 | 1021.4 |
| 20260906100539 | -17 | 0.0 | 0.0 | 0.00 | 0.33 | 0.00 | 1021.2 | ||
| 20260906100012 | -17 | 0.0 | 0.0 | 0.00 | 0.33 | 0.00 | 1021.1 | ||
| 20260906095507 | -17 | 0.0 | 0.0 | 0.00 | 0.33 | 0.00 | 1021.0 | ||
| 20260906095157 | -17 | 0.0 | 0.0 | 0.00 | 0.33 | 0.00 | 1020.8 | ||
| 20260906094340 | -17 | 0.0 | 0.0 | 0.00 | 0.33 | 0.00 | 1020.8 | ||
| 20260906093836 | -17 | 0.0 | 0.0 | 0.00 | 0.33 | 0.00 | 1020.6 | ||
| 20260906093311 | -17 | 0.0 | 0.0 | 0.00 | 0.33 | 0.00 | 1020.5 | ||
| 20260906092811 | -17 | 0.0 | 0.0 | 0.00 | 0.33 | 0.00 | 1020.3 | ||
| 20260906092246 | -17 | 0.0 | 0.0 | 0.00 | 0.33 | 0.00 | 1020.2 | ||
| 20260906091734 | -17 | 0.0 | 0.0 | 0.00 | 0.33 | 0.00 | 1020.2 | ||
| 20260906091444 | -17 | 0.0 | 0.0 | 0.00 | 0.33 | 0.00 | 1020.2 | ||
| 20260906090627 | -17 | 0.0 | 0.0 | 0.00 | 0.33 | 0.00 | 1020.1 | ||
| 20260906090107 | -17 | 0.0 | 0.0 | 0.00 | 0.33 | 0.00 | 1020.1 | ||
| 20260906085606 | -17 | 0.0 | 0.0 | 0.00 | 0.33 | 0.00 | 1020.0 | ||
| 20260906085243 | -17 | 0.0 | 0.0 | 0.00 | 0.33 | 0.00 | 1020.0 | ||
| 20260906084432 | -17 | 0.0 | 0.0 | 0.00 | 0.33 | 0.00 | 1019.9 | ||
| 20260906083847 | -17 | 0.0 | 0.0 | 0.00 | 0.33 | 0.00 | 1019.8 | ||
| 20260906083311 | -17 | 0.0 | 0.0 | 0.00 | 0.33 | 0.00 | 1019.8 | ||
| 20260906082732 | -17 | 0.0 | 0.0 | 0.00 | 0.33 | 0.00 | 1019.9 | ||
| 20260906082220 | -17 | 0.0 | 0.0 | 0.00 | 0.33 | 0.00 | 1019.8 | ||
| 20260906082140 | -17 | 0.0 | 0.0 | 0.00 | 0.33 | 0.00 | 1019.7 | ||
| 20260906081137 | -17 | 0.0 | 0.0 | 0.00 | 0.33 | 0.00 | 1019.7 | ||
| 20260906080637 | -17 | 0.0 | 0.0 | 0.00 | 0.33 | 0.00 | 1019.6 | ||
| 20260906080047 | -17 | 0.0 | 0.0 | 0.00 | 0.33 | 0.00 | 1019.6 | ||
| 20260906075507 | -17 | 0.0 | 0.0 | 0.00 | 0.33 | 0.00 | 1019.6 | ||
| 20260906075218 | -17 | 0.0 | 0.0 | 0.00 | 0.33 | 0.00 | 1019.7 | ||
| 20260906074658 | -17 | 0.0 | 0.0 | 0.00 | 0.33 | 0.00 | 1019.7 | ||
| 20260906073838 | -17 | 116 | 0.0 | 0.0 | 0.00 | 0.33 | 0.00 | 1019.6 | |
| 20260906073255 | 13 | 116 | 0.0 | 1.6 | 0.00 | 0.33 | 0.00 | 100 | 1019.7 |
| 20260906072734 | 13 | 116 | 0.0 | 1.6 | 0.00 | 0.33 | 0.00 | 100 | 1019.7 |
| 20260906072232 | 13 | 116 | 0.0 | 1.6 | 0.00 | 0.33 | 0.00 | 100 | 1019.7 |
| 20260906071958 | 13 | 116 | 0.0 | 1.6 | 0.00 | 0.33 | 0.00 | 100 | 1019.6 |
| 20260906071202 | 13 | 116 | 0.0 | 3.2 | 0.00 | 0.33 | 0.00 | 100 | 1019.5 |
| 20260906070659 | 13 | 116 | 0.0 | 4.8 | 0.00 | 0.33 | 0.00 | 100 | 1019.5 |
| 20260906070354 | 13 | 116 | 0.0 | 4.8 | 0.00 | 0.33 | 0.00 | 100 | 1019.5 |
| 20260906065628 | 13 | 116 | 0.0 | 0.0 | 0.00 | 0.33 | 0.00 | 100 | 1019.4 |
| 20260906065103 | 13 | 116 | 0.0 | 0.0 | 0.00 | 0.33 | 0.00 | 100 | 1019.5 |
| 20260906064537 | 13 | 114 | 0.0 | 0.0 | 0.00 | 0.33 | 0.00 | 100 | 1019.6 |
| 20260906064010 | 13 | 114 | 0.0 | 0.0 | 0.00 | 0.33 | 0.00 | 100 | 1019.5 |
| 20260906063443 | 13 | 114 | 0.0 | 0.0 | 0.00 | 0.33 | 0.00 | 100 | 1019.5 |
| 20260906062939 | 13 | 114 | 0.0 | 0.0 | 0.00 | 0.33 | 0.00 | 100 | 1019.4 |
| 20260906062427 | 13 | 114 | 0.0 | 0.0 | 0.00 | 0.33 | 0.00 | 100 | 1019.4 |
| 20260906061903 | 13 | 114 | 0.0 | 0.0 | 0.00 | 0.33 | 0.00 | 100 | 1019.4 |
| 20260906061401 | 13 | 114 | 0.0 | 0.0 | 0.00 | 0.33 | 0.00 | 100 | 1019.4 |
| 20260906060900 | 12 | 114 | 0.0 | 0.0 | 0.00 | 0.33 | 0.00 | 100 | 1019.4 |
| 20260906060404 | 13 | 114 | 0.0 | 0.0 | 0.00 | 0.33 | 0.00 | 100 | 1019.5 |
| 20260906055838 | 13 | 114 | 0.0 | 3.2 | 0.00 | 0.33 | 0.00 | 100 | 1019.5 |
| 20260906055337 | 13 | 114 | 0.0 | 3.2 | 0.00 | 0.33 | 0.00 | 100 | 1019.4 |
| 20260906054832 | 13 | 114 | 0.0 | 3.2 | 0.00 | 0.33 | 0.00 | 100 | 1019.2 |
| 20260906054559 | 13 | 114 | 0.0 | 3.2 | 0.00 | 0.33 | 0.00 | 100 | 1019.3 |
| 20260906053825 | 13 | 114 | 0.0 | 3.2 | 0.00 | 0.33 | 0.00 | 100 | 1019.3 |
| 20260906053548 | 13 | 114 | 0.0 | 0.0 | 0.00 | 0.33 | 0.00 | 100 | 1019.3 |
| 20260906052819 | 13 | 114 | 0.0 | 0.0 | 0.00 | 0.33 | 0.00 | 100 | 1019.3 |
| 20260906052318 | 13 | 114 | 0.0 | 0.0 | 0.00 | 0.33 | 0.00 | 100 | 1019.1 |
| 20260906051819 | 13 | 114 | 0.0 | 0.0 | 0.00 | 0.33 | 0.00 | 100 | 1018.9 |
| 20260906051305 | 13 | 114 | 0.0 | 0.0 | 0.00 | 0.33 | 0.00 | 100 | 1018.8 |
| 20260906050809 | 13 | 114 | 0.0 | 0.0 | 0.00 | 0.33 | 0.00 | 100 | 1018.8 |
| 20260906050243 | 13 | 114 | 0.0 | 0.0 | 0.00 | 0.33 | 0.00 | 100 | 1018.8 |
| 20260906045734 | 13 | 114 | 0.0 | 0.0 | 0.00 | 0.33 | 0.00 | 100 | 1018.9 |
| 20260906045237 | 13 | 114 | 0.0 | 0.0 | 0.00 | 0.33 | 0.00 | 100 | 1019.0 |
| 20260906044732 | 13 | 114 | 0.0 | 0.0 | 0.00 | 0.33 | 0.00 | 100 | 1019.0 |
| 20260906044453 | 13 | 114 | 0.0 | 0.0 | 0.00 | 0.33 | 0.00 | 100 | 1019.0 |
| 20260906043703 | 13 | 114 | 0.0 | 0.0 | 0.00 | 0.33 | 0.00 | 100 | 1019.1 |
| 20260906043643 | 13 | 114 | 0.0 | 0.0 | 0.00 | 0.33 | 0.00 | 100 | 1019.2 |
| 20260906042636 | 13 | 114 | 0.0 | 0.0 | 0.00 | 0.33 | 0.00 | 100 | 1019.3 |
| 20260906042122 | 13 | 114 | 0.0 | 3.2 | 0.00 | 0.33 | 0.00 | 100 | 1019.4 |
| 20260906041618 | 13 | 114 | 0.0 | 3.2 | 0.00 | 0.33 | 0.00 | 100 | 1019.3 |
| 20260906041115 | 13 | 114 | 0.0 | 3.2 | 0.00 | 0.33 | 0.00 | 100 | 1019.3 |
| 20260906040614 | 13 | 114 | 0.0 | 3.2 | 0.00 | 0.33 | 0.00 | 100 | 1019.3 |
| 20260906040116 | 13 | 114 | 0.0 | 1.6 | 0.00 | 0.33 | 0.00 | 100 | 1019.4 |
| 20260906035545 | 14 | 114 | 0.0 | 0.0 | 0.00 | 0.33 | 0.00 | 100 | 1019.5 |
| 20260906035019 | 14 | 114 | 0.0 | 0.0 | 0.00 | 0.33 | 0.00 | 100 | 1019.6 |
| 20260906034452 | 14 | 114 | 0.0 | 0.0 | 0.00 | 0.33 | 0.00 | 100 | 1019.5 |
| 20260906033930 | 14 | 114 | 0.0 | 3.2 | 0.00 | 0.33 | 0.00 | 100 | 1019.6 |
| 20260906033401 | 14 | 114 | 0.0 | 3.2 | 0.00 | 0.33 | 0.00 | 100 | 1019.5 |
| 20260906032858 | 14 | 114 | 0.0 | 1.6 | 0.00 | 0.33 | 0.00 | 100 | 1019.5 |
| 20260906032332 | 14 | 114 | 0.0 | 1.6 | 0.00 | 0.33 | 0.00 | 100 | 1019.5 |
| 20260906031804 | 14 | 114 | 0.0 | 3.2 | 0.00 | 0.33 | 0.00 | 99 | 1019.5 |
| 20260906031237 | 14 | 114 | 0.0 | 4.8 | 0.00 | 0.33 | 0.00 | 99 | 1019.4 |
| 20260906030713 | 14 | 114 | 1.6 | 4.8 | 0.00 | 0.33 | 0.00 | 99 | 1019.6 |
| 20260906030146 | 14 | 113 | 1.6 | 6.4 | 0.00 | 0.33 | 0.00 | 99 | 1019.5 |
| 20260906025625 | 14 | 121 | 0.0 | 4.8 | 0.00 | 0.33 | 0.33 | 99 | 1019.5 |
| 20260906025109 | 15 | 139 | 0.0 | 0.0 | 0.00 | 0.33 | 0.33 | 99 | 1019.5 |
| 20260906024609 | 15 | 139 | 0.0 | 0.0 | 0.00 | 0.33 | 0.33 | 99 | 1019.6 |
| 20260906024044 | 15 | 139 | 0.0 | 0.0 | 0.00 | 0.33 | 0.33 | 99 | 1019.6 |
| 20260906024014 | 15 | 139 | 0.0 | 0.0 | 0.00 | 0.33 | 0.33 | 99 | 1019.6 |
| 20260906022958 | 15 | 139 | 0.0 | 0.0 | 0.00 | 0.33 | 0.33 | 99 | 1019.6 |
| 20260906022436 | 15 | 139 | 0.0 | 0.0 | 0.00 | 0.33 | 0.33 | 99 | 1019.5 |
| 20260906021907 | 15 | 139 | 0.0 | 0.0 | 0.00 | 0.33 | 0.33 | 99 | 1019.3 |
| 20260906021408 | 15 | 139 | 0.0 | 0.0 | 0.00 | 0.33 | 0.33 | 99 | 1019.4 |
| 20260906020906 | 15 | 139 | 0.0 | 0.0 | 0.00 | 0.33 | 0.33 | 99 | 1019.2 |
| 20260906020405 | 15 | 139 | 0.0 | 0.0 | 0.00 | 0.33 | 0.33 | 99 | 1019.2 |
| 20260906015836 | 15 | 148 | 0.0 | 0.0 | 0.00 | 0.33 | 0.33 | 98 | 1019.2 |
| 20260906015334 | 15 | 148 | 0.0 | 0.0 | 0.00 | 0.33 | 0.33 | 98 | 1019.1 |
| 20260906014808 | 15 | 148 | 0.0 | 0.0 | 0.00 | 0.33 | 0.33 | 98 | 1019.2 |
| 20260906014239 | 15 | 148 | 0.0 | 0.0 | 0.00 | 0.33 | 0.33 | 98 | 1019.2 |
| 20260906013737 | 15 | 148 | 0.0 | 0.0 | 0.00 | 0.33 | 0.33 | 98 | 1019.0 |
| 20260906013235 | 15 | 148 | 0.0 | 0.0 | 0.00 | 0.33 | 0.33 | 97 | 1018.8 |
| 20260906012936 | 15 | 148 | 0.0 | 0.0 | 0.00 | 0.33 | 0.33 | 97 | 1018.9 |
| 20260906012151 | 15 | 148 | 0.0 | 4.8 | 0.00 | 0.33 | 0.33 | 97 | 1018.7 |
| 20260906011640 | 15 | 148 | 0.0 | 4.8 | 0.00 | 0.33 | 0.33 | 97 | 1018.7 |
| 20260906011404 | 15 | 162 | 0.0 | 4.8 | 0.00 | 0.33 | 0.33 | 98 | 1018.7 |
| 20260906010610 | 15 | 152 | 0.0 | 4.8 | 0.00 | 0.33 | 0.33 | 98 | 1018.6 |
| 20260906010109 | 15 | 152 | 0.0 | 4.8 | 0.00 | 0.33 | 0.33 | 98 | 1018.6 |
| 20260906005611 | 15 | 152 | 0.0 | 0.0 | 0.00 | 0.33 | 0.33 | 98 | 1018.8 |
| 20260906005104 | 15 | 152 | 0.0 | 0.0 | 0.00 | 0.33 | 0.33 | 97 | 1018.7 |
| 20260906004604 | 15 | 141 | 0.0 | 0.0 | 0.00 | 0.33 | 0.33 | 97 | 1018.6 |
| 20260906004032 | 15 | 141 | 0.0 | 0.0 | 0.00 | 0.33 | 0.33 | 97 | 1018.6 |
| 20260906003503 | 15 | 141 | 0.0 | 0.0 | 0.03 | 0.33 | 0.33 | 97 | 1018.6 |
| 20260906003439 | 15 | 141 | 0.0 | 4.8 | 0.03 | 0.33 | 0.33 | 97 | 1018.6 |
| 20260906002452 | 15 | 192 | 0.0 | 4.8 | 0.03 | 0.33 | 0.33 | 97 | 1018.6 |
| 20260906001949 | 15 | 192 | 0.0 | 3.2 | 0.03 | 0.33 | 0.33 | 97 | 1018.6 |
| 20260906001426 | 15 | 150 | 0.0 | 0.0 | 0.03 | 0.33 | 0.33 | 97 | 1018.3 |
| 20260906001117 | 15 | 150 | 0.0 | 4.8 | 0.03 | 0.33 | 0.33 | 97 | 1018.2 |
| 20260906000355 | 15 | 150 | 0.0 | 4.8 | 0.03 | 0.33 | 0.33 | 96 | 1018.0 |
| 20260905235826 | 15 | 151 | 1.6 | 4.8 | 0.03 | 0.33 | 0.33 | 96 | 1018.2 |
| 20260905235323 | 15 | 150 | 1.6 | 6.4 | 0.03 | 0.33 | 0.33 | 96 | 1018.3 |
| 20260905234758 | 15 | 159 | 1.6 | 6.4 | 0.03 | 0.33 | 0.33 | 96 | 1018.3 |
| 20260905234255 | 15 | 197 | 1.6 | 6.4 | 0.03 | 0.33 | 0.33 | 96 | 1018.5 |
| 20260905233754 | 15 | 153 | 3.2 | 8.0 | 0.00 | 0.30 | 0.33 | 96 | 1018.3 |
| 20260905233225 | 15 | 203 | 1.6 | 8.0 | 0.00 | 0.30 | 0.30 | 95 | 1018.2 |
| 20260905232658 | 15 | 331 | 1.6 | 8.0 | 0.00 | 0.30 | 0.30 | 96 | 1017.5 |
| 20260905232158 | 15 | 126 | 3.2 | 9.7 | 0.03 | 0.30 | 0.30 | 96 | 1017.4 |
| 20260905231629 | 15 | 179 | 3.2 | 9.7 | 0.03 | 0.30 | 0.30 | 96 | 1017.6 |
| 20260905231125 | 16 | 216 | 1.6 | 8.0 | 0.05 | 0.30 | 0.30 | 97 | 1017.9 |
| 20260905230622 | 16 | 214 | 1.6 | 8.0 | 0.05 | 0.30 | 0.30 | 97 | 1018.0 |
| 20260905230346 | 16 | 166 | 3.2 | 8.0 | 0.05 | 0.30 | 0.30 | 97 | 1018.1 |
| 20260905225616 | 15 | 214 | 3.2 | 8.0 | 0.05 | 0.30 | 0.30 | 97 | 1018.1 |
| 20260905225113 | 15 | 224 | 1.6 | 6.4 | 0.05 | 0.30 | 0.30 | 98 | 1017.7 |
| 20260905224549 | 15 | 189 | 1.6 | 4.8 | 0.05 | 0.30 | 0.30 | 98 | 1017.2 |
| 20260905224028 | 15 | 170 | 0.0 | 4.8 | 0.05 | 0.30 | 0.30 | 98 | 1016.8 |
| 20260905223502 | 16 | 145 | 0.0 | 0.0 | 0.05 | 0.30 | 0.30 | 98 | 1016.9 |
| 20260905222924 | 16 | 156 | 0.0 | 0.0 | 0.05 | 0.30 | 0.30 | 98 | 1017.1 |
| 20260905222422 | 16 | 149 | 0.0 | 0.0 | 0.05 | 0.30 | 0.30 | 98 | 1017.0 |
| 20260905222135 | 16 | 145 | 0.0 | 0.0 | 0.03 | 0.28 | 0.28 | 98 | 1017.2 |
| 20260905221413 | 16 | 127 | 0.0 | 0.0 | 0.03 | 0.25 | 0.28 | 98 | 1017.2 |
| 20260905220844 | 16 | 247 | 0.0 | 0.0 | 0.05 | 0.25 | 0.25 | 98 | 1017.2 |
| 20260905220341 | 16 | 247 | 0.0 | 0.0 | 0.05 | 0.25 | 0.25 | 98 | 1017.1 |
| 20260905215838 | 16 | 247 | 0.0 | 3.2 | 0.05 | 0.25 | 0.25 | 98 | 1017.2 |
| 20260905215336 | 16 | 247 | 0.0 | 1.6 | 0.05 | 0.25 | 0.25 | 98 | 1017.1 |
| 20260905215021 | 16 | 247 | 1.6 | 3.2 | 0.05 | 0.25 | 0.25 | 98 | 1017.3 |
| 20260905214224 | 16 | 247 | 1.6 | 4.8 | 0.05 | 0.25 | 0.25 | 98 | 1017.2 |
| 20260905213721 | 16 | 247 | 1.6 | 4.8 | 0.05 | 0.25 | 0.25 | 98 | 1016.7 |
| 20260905213213 | 16 | 144 | 0.0 | 0.0 | 0.05 | 0.25 | 0.25 | 98 | 1016.3 |
| 20260905212711 | 16 | 221 | 0.0 | 0.0 | 0.05 | 0.25 | 0.25 | 98 | 1016.2 |
| 20260905212204 | 16 | 221 | 0.0 | 0.0 | 0.05 | 0.25 | 0.25 | 98 | 1016.0 |
| 20260905211642 | 16 | 221 | 0.0 | 0.0 | 0.03 | 0.23 | 0.23 | 97 | 1016.1 |
| 20260905211334 | 16 | 221 | 0.0 | 0.0 | 0.00 | 0.20 | 0.23 | 97 | 1016.2 |
| 20260905210609 | 16 | 221 | 0.0 | 0.0 | 0.00 | 0.20 | 0.20 | 97 | 1016.3 |
| 20260905210043 | 16 | 221 | 0.0 | 0.0 | 0.00 | 0.20 | 0.20 | 97 | 1016.5 |
| 20260905205742 | 16 | 221 | 0.0 | 3.2 | 0.00 | 0.20 | 0.20 | 97 | 1016.5 |
| 20260905205027 | 16 | 221 | 0.0 | 3.2 | 0.00 | 0.20 | 0.20 | 97 | 1016.4 |
| 20260905204524 | 16 | 222 | 0.0 | 4.8 | 0.00 | 0.20 | 0.20 | 97 | 1016.2 |
| 20260905204024 | 16 | 222 | 1.6 | 4.8 | 0.00 | 0.20 | 0.20 | 97 | 1016.2 |
| 20260905203454 | 16 | 222 | 1.6 | 4.8 | 0.00 | 0.20 | 0.20 | 97 | 1016.2 |
| 20260905202951 | 16 | 222 | 1.6 | 4.8 | 0.00 | 0.20 | 0.20 | 96 | 1016.2 |
| 20260905202424 | 16 | 211 | 1.6 | 4.8 | 0.00 | 0.20 | 0.20 | 96 | 1016.2 |
| 20260905201923 | 16 | 211 | 0.0 | 4.8 | 0.00 | 0.20 | 0.20 | 96 | 1016.1 |
| 20260905201354 | 16 | 212 | 0.0 | 3.2 | 0.00 | 0.20 | 0.20 | 96 | 1015.9 |
| 20260905200850 | 16 | 212 | 0.0 | 3.2 | 0.00 | 0.20 | 0.20 | 96 | 1015.8 |
| 20260905200328 | 16 | 212 | 0.0 | 0.0 | 0.00 | 0.20 | 0.20 | 97 | 1015.7 |
| 20260905195758 | 16 | 212 | 0.0 | 0.0 | 0.00 | 0.20 | 0.20 | 96 | 1015.4 |
| 20260905195518 | 16 | 212 | 0.0 | 0.0 | 0.00 | 0.20 | 0.20 | 96 | 1015.3 |
| 20260905194731 | 16 | 212 | 0.0 | 0.0 | 0.00 | 0.20 | 0.20 | 96 | 1015.3 |
| 20260905194202 | 16 | 212 | 0.0 | 0.0 | 0.00 | 0.20 | 0.20 | 96 | 1015.5 |
| 20260905193700 | 16 | 212 | 0.0 | 0.0 | 0.00 | 0.20 | 0.20 | 96 | 1015.4 |
| 20260905193137 | 16 | 212 | 0.0 | 0.0 | 0.00 | 0.20 | 0.20 | 96 | 1015.4 |
| 20260905192612 | 16 | 212 | 0.0 | 0.0 | 0.00 | 0.20 | 0.20 | 96 | 1015.4 |
| 20260905192110 | 16 | 190 | 0.0 | 0.0 | 0.00 | 0.20 | 0.20 | 96 | 1015.6 |
| 20260905191608 | 16 | 190 | 0.0 | 3.2 | 0.00 | 0.20 | 0.20 | 97 | 1015.6 |
| 20260905191110 | 16 | 190 | 0.0 | 3.2 | 0.00 | 0.20 | 0.20 | 96 | 1015.6 |
| 20260905190547 | 16 | 190 | 0.0 | 3.2 | 0.00 | 0.20 | 0.20 | 96 | 1015.4 |
| 20260905190039 | 16 | 190 | 1.6 | 4.8 | 0.00 | 0.20 | 0.20 | 96 | 1015.4 |
| 20260905185521 | 16 | 190 | 1.6 | 4.8 | 0.00 | 0.20 | 0.20 | 96 | 1015.6 |
| 20260905185021 | 16 | 172 | 1.6 | 4.8 | 0.00 | 0.20 | 0.20 | 96 | 1015.9 |
| 20260905184519 | 16 | 81 | 1.6 | 4.8 | 0.00 | 0.20 | 0.20 | 97 | 1015.7 |
| 20260905184021 | 16 | 207 | 0.0 | 4.8 | 0.00 | 0.20 | 0.20 | 96 | 1015.3 |
| 20260905183457 | 16 | 208 | 0.0 | 4.8 | 0.00 | 0.20 | 0.20 | 97 | 1015.3 |
| 20260905182956 | 16 | 78 | 0.0 | 0.0 | 0.00 | 0.20 | 0.20 | 97 | 1015.3 |
| 20260905182438 | 16 | 78 | 0.0 | 0.0 | 0.00 | 0.20 | 0.20 | 96 | 1015.3 |
| 20260905181936 | 16 | 78 | 0.0 | 4.8 | 0.00 | 0.20 | 0.20 | 96 | 1015.3 |
| 20260905181436 | 16 | 75 | 0.0 | 4.8 | 0.00 | 0.20 | 0.20 | 96 | 1015.5 |
| 20260905180933 | 16 | 144 | 0.0 | 0.0 | 0.00 | 0.20 | 0.20 | 96 | 1015.3 |
| 20260905180436 | 16 | 144 | 0.0 | 0.0 | 0.00 | 0.20 | 0.20 | 96 | 1015.2 |
| 20260905175910 | 16 | 145 | 0.0 | 0.0 | 0.00 | 0.20 | 0.20 | 95 | 1014.9 |
| 20260905175350 | 16 | 145 | 0.0 | 0.0 | 0.00 | 0.20 | 0.20 | 95 | 1015.1 |
| 20260905174828 | 16 | 145 | 0.0 | 0.0 | 0.00 | 0.20 | 0.20 | 95 | 1015.3 |
| 20260905174301 | 16 | 144 | 0.0 | 3.2 | 0.00 | 0.20 | 0.20 | 95 | 1015.3 |
| 20260905173745 | 17 | 143 | 1.6 | 6.4 | 0.00 | 0.20 | 0.20 | 95 | 1015.3 |
| 20260905173224 | 17 | 143 | 0.0 | 6.4 | 0.00 | 0.20 | 0.20 | 94 | 1015.2 |
| 20260905172658 | 17 | 148 | 0.0 | 0.0 | 0.00 | 0.20 | 0.20 | 93 | 1015.3 |
| 20260905172408 | 17 | 148 | 0.0 | 0.0 | 0.00 | 0.20 | 0.20 | 92 | 1015.8 |
| 20260905171646 | 17 | 148 | 0.0 | 0.0 | 0.00 | 0.20 | 0.20 | 91 | 1015.7 |
| 20260905171145 | 17 | 144 | 0.0 | 0.0 | 0.00 | 0.20 | 0.20 | 92 | 1015.5 |
| 20260905170642 | 17 | 144 | 0.0 | 3.2 | 0.00 | 0.20 | 0.20 | 92 | 1015.4 |
| 20260905170119 | 17 | 144 | 0.0 | 4.8 | 0.00 | 0.20 | 0.20 | 91 | 1015.5 |
| 20260905165819 | 17 | 145 | 0.0 | 4.8 | 0.00 | 0.20 | 0.20 | 90 | 1015.7 |
| 20260905165027 | 17 | 154 | 0.0 | 0.0 | 0.00 | 0.20 | 0.20 | 90 | 1015.8 |
| 20260905164527 | 17 | 154 | 0.0 | 0.0 | 0.00 | 0.20 | 0.20 | 91 | 1015.6 |
| 20260905164012 | 17 | 152 | 0.0 | 0.0 | 0.00 | 0.20 | 0.20 | 91 | 1015.5 |
| 20260905163444 | 17 | 202 | 0.0 | 4.8 | 0.00 | 0.20 | 0.20 | 90 | 1015.5 |
| 20260905163149 | 17 | 202 | 1.6 | 4.8 | 0.00 | 0.20 | 0.20 | 90 | 1015.7 |
| 20260905162636 | 17 | 172 | 1.6 | 4.8 | 0.00 | 0.20 | 0.20 | 90 | 1015.7 |
| 20260905161847 | 17 | 189 | 1.6 | 11.3 | 0.00 | 0.20 | 0.20 | 90 | 1015.5 |
| 20260905161320 | 17 | 133 | 3.2 | 11.3 | 0.00 | 0.20 | 0.20 | 90 | 1015.4 |
| 20260905160754 | 17 | 123 | 3.2 | 11.3 | 0.00 | 0.20 | 0.20 | 90 | 1015.4 |
| 20260905160229 | 17 | 130 | 1.6 | 11.3 | 0.00 | 0.20 | 0.20 | 90 | 1015.4 |
| 20260905155717 | 17 | 123 | 1.6 | 6.4 | 0.00 | 0.20 | 0.20 | 91 | 1015.6 |
| 20260905155213 | 17 | 175 | 1.6 | 6.4 | 0.03 | 0.20 | 0.20 | 91 | 1015.9 |
| 20260905154714 | 16 | 212 | 1.6 | 4.8 | 0.03 | 0.20 | 0.20 | 92 | 1015.9 |
| 20260905154145 | 16 | 132 | 1.6 | 6.4 | 0.05 | 0.20 | 0.20 | 93 | 1015.8 |
| 20260905153642 | 16 | 151 | 1.6 | 6.4 | 0.08 | 0.20 | 0.20 | 93 | 1015.8 |
| 20260905153117 | 16 | 287 | 1.6 | 4.8 | 0.10 | 0.20 | 0.20 | 94 | 1015.8 |
| 20260905152828 | 16 | 183 | 1.6 | 6.4 | 0.15 | 0.20 | 0.20 | 95 | 1016.2 |
| 20260905152105 | 16 | 188 | 3.2 | 6.4 | 0.18 | 0.20 | 0.20 | 95 | 1016.2 |
| 20260905151553 | 16 | 189 | 3.2 | 9.7 | 0.20 | 0.20 | 0.20 | 94 | 1016.2 |
| 20260905151331 | 16 | 208 | 1.6 | 9.7 | 0.20 | 0.20 | 0.20 | 95 | 1016.2 |